Weather History for Marion Regional, IL

Change the Weather History Date:

Monday, January 21, 2013

  Actual Average Record
Temperature  
Mean Temperature 26 °F -  
Max Temperature 30 °F 37 °F 69 °F (1999)
Min Temperature 21 °F 20 °F -18 °F (1984)
Degree Days  
Heating Degree Days 40    
Moisture  
Dew Point 11 °F    
Average Humidity 53    
Maximum Humidity 69    
Minimum Humidity 37    
Precipitation  
Precipitation 0.00 in - - ()
Sea Level Pressure  
Sea Level Pressure 30.33 in    
Wind  
Wind Speed 6 mph (NNW)    
Max Wind Speed 17 mph    
Max Gust Speed 23 mph    
Visibility 10 miles    
Events      
Averages and records for this station are not official NWS values.
T = Trace of Precipitation, MM = Missing Value Source: NWS Daily Summary

Daily Weather History Graph

Daily Weather History Graph

Search for Another Location

Airport:

Trip Planner

Search our weather history database for the weather conditions in past years. The results will help you decide how hot, cold, wet, or windy it might be!

Date:

Astronomy

Jan. 21, 2013 Rise Set
Actual Time 7:07 AM CST 5:07 PM CST
Civil Twilight 6:39 AM CST 5:36 PM CST
Nautical Twilight 6:07 AM CST 6:08 PM CST
Astronomical Twilight 5:36 AM CST 6:39 PM CST
Moon 12:48 PM CST (1/21) 2:35 AM CST (1/21)
Length of Visible Light 10h 56m
Length of Day
10h 00m
Waxing Gibbous, 75% of the Moon is Illuminated
Jan 21
Waxing Gibbous
Jan 26
Full
Feb 3
Last Quarter
Feb 10
New
Feb 17
First Quarter

Hourly Weather History & Observations

Time (CST) Temp. Windchill Dew Point Humidity Pressure Visibility Wind Dir Wind Speed Gust Speed Precip Events Conditions
12:15 AM 28.4 °F 24.6 °F 17.6 °F 64% 30.27 in 10.0 mi NNW 3.5 mph - N/A   Clear
12:35 AM 28.4 °F - 17.6 °F 64% 30.27 in 10.0 mi Calm Calm - N/A   Clear
12:55 AM 28.4 °F - 17.6 °F 64% 30.26 in 10.0 mi Calm Calm - N/A   Clear
1:15 AM 28.4 °F 24.6 °F 17.6 °F 64% 30.27 in 10.0 mi NW 3.5 mph - N/A   Clear
1:35 AM 28.4 °F - 19.4 °F 69% 30.28 in 10.0 mi Calm Calm - N/A   Clear
1:55 AM 28.4 °F 24.6 °F 19.4 °F 69% 30.28 in 10.0 mi NW 3.5 mph - N/A   Clear
2:15 AM 28.4 °F 24.6 °F 19.4 °F 69% 30.28 in 10.0 mi NW 3.5 mph - N/A   Clear
2:35 AM 28.4 °F 23.3 °F 19.4 °F 69% 30.29 in 10.0 mi NW 4.6 mph - N/A   Clear
2:55 AM 28.4 °F 24.6 °F 19.4 °F 69% 30.29 in 10.0 mi NNW 3.5 mph - N/A   Clear
3:15 AM 28.4 °F 24.6 °F 19.4 °F 69% 30.29 in 10.0 mi WNW 3.5 mph - N/A   Scattered Clouds
3:35 AM 28.4 °F 20.4 °F 17.6 °F 64% 30.29 in 10.0 mi NW 8.1 mph - N/A   Mostly Cloudy
3:55 AM 28.4 °F 20.4 °F 17.6 °F 64% 30.29 in 10.0 mi NW 8.1 mph - N/A   Mostly Cloudy
4:15 AM 28.4 °F 19.7 °F 15.8 °F 59% 30.30 in 10.0 mi NNW 9.2 mph - N/A   Scattered Clouds
4:35 AM 26.6 °F 16.8 °F 14.0 °F 59% 30.31 in 10.0 mi NNW 10.4 mph 17.3 mph N/A   Clear
4:55 AM 26.6 °F 18.2 °F 14.0 °F 59% 30.31 in 10.0 mi NW 8.1 mph - N/A   Clear
5:15 AM 26.6 °F 20.0 °F 14.0 °F 59% 30.31 in 10.0 mi NW 5.8 mph - N/A   Clear
5:35 AM 26.6 °F 18.2 °F 14.0 °F 59% 30.32 in 10.0 mi NW 8.1 mph - N/A   Clear
6:50 AM 23.0 °F 11.7 °F 14.0 °F 68% 30.34 in 25.0 mi NW 11.5 mph - N/A   Partly Cloudy
7:55 AM 24.8 °F 15.3 °F 14.0 °F 64% 30.34 in 25.0 mi NW 9.2 mph - N/A   Partly Cloudy
8:50 AM 24.8 °F 12.9 °F 12.2 °F 59% 30.35 in 25.0 mi NW 13.8 mph - N/A   Partly Cloudy
10:50 AM 28.4 °F 16.2 °F 8.6 °F 43% 30.35 in 25.0 mi NW 17.3 mph - N/A   Clear
11:58 AM 28.4 °F 17.5 °F 10.4 °F 47% 30.32 in 25.0 mi WNW 13.8 mph - N/A   Clear
12:57 PM 30.2 °F 19.3 °F 8.6 °F 40% 30.30 in 25.0 mi NW 15.0 mph 23.0 mph N/A   Partly Cloudy
1:53 PM 30.2 °F 18.9 °F 8.6 °F 40% 30.31 in 25.0 mi NW 16.1 mph - N/A   Partly Cloudy
2:53 PM 30.2 °F 19.3 °F 6.8 °F 37% 30.31 in 25.0 mi NW 15.0 mph - N/A   Partly Cloudy
3:54 PM 28.4 °F 17.5 °F 6.8 °F 40% 30.32 in 25.0 mi NNW 13.8 mph - N/A   Scattered Clouds
4:57 PM 28.4 °F 19.7 °F 6.8 °F 40% 30.33 in 25.0 mi NNW 9.2 mph - N/A   Mostly Cloudy
5:51 PM 26.6 °F 16.2 °F 3.2 °F 37% 30.34 in 25.0 mi North 11.5 mph - N/A   Mostly Cloudy
6:55 PM 24.8 °F 17.9 °F 5.0 °F 43% 30.35 in 10.0 mi NNW 5.8 mph - N/A   Overcast
7:15 PM 24.8 °F 17.9 °F 5.0 °F 43% 30.35 in 10.0 mi NNW 5.8 mph - N/A   Overcast
7:35 PM 24.8 °F 16.9 °F 5.0 °F 43% 30.35 in 10.0 mi NNW 6.9 mph - N/A   Overcast
7:55 PM 23.0 °F 18.4 °F 5.0 °F 46% 30.36 in 10.0 mi NNW 3.5 mph - N/A   Mostly Cloudy
8:15 PM 23.0 °F 14.7 °F 5.0 °F 46% 30.36 in 10.0 mi North 6.9 mph - N/A   Mostly Cloudy
8:35 PM 23.0 °F 14.7 °F 5.0 °F 46% 30.36 in 10.0 mi NNW 6.9 mph - N/A   Overcast
8:55 PM 23.0 °F 13.9 °F 5.0 °F 46% 30.37 in 10.0 mi North 8.1 mph - N/A   Overcast
9:15 PM 23.0 °F 14.7 °F 3.2 °F 43% 30.37 in 10.0 mi North 6.9 mph - N/A   Overcast
9:35 PM 23.0 °F 13.9 °F 5.0 °F 46% 30.38 in 10.0 mi NNW 8.1 mph - N/A   Overcast
9:55 PM 23.0 °F 13.1 °F 5.0 °F 46% 30.38 in 10.0 mi NNW 9.2 mph - N/A   Overcast
10:15 PM 21.2 °F 12.6 °F 5.0 °F 50% 30.38 in 10.0 mi North 6.9 mph - N/A   Mostly Cloudy
10:35 PM 21.2 °F 11.7 °F 5.0 °F 50% 30.38 in 10.0 mi NNW 8.1 mph - N/A   Mostly Cloudy
10:55 PM 21.2 °F 11.7 °F 5.0 °F 50% 30.39 in 10.0 mi NNW 8.1 mph - N/A   Scattered Clouds
11:15 PM 21.2 °F 11.7 °F 3.2 °F 46% 30.39 in 10.0 mi North 8.1 mph - N/A   Clear
11:35 PM 21.2 °F 10.9 °F 3.2 °F 46% 30.40 in 10.0 mi North 9.2 mph - N/A   Clear
11:55 PM 21.2 °F 13.6 °F 3.2 °F 46% 30.39 in 10.0 mi NNW 5.8 mph - N/A   Clear